TimeCST,TemperatureF,Dew PointF,Humidity,Sea Level PressureIn,VisibilityMPH,Wind Direction,Wind SpeedMPH,Gust SpeedMPH,PrecipitationIn,Events,Conditions,WindDirDegrees,DateUTC
12:52 AM,46.9,30.9,54,30.12,10.0,North,8.1,-,N/A,,Clear,350,2012-12-04 06:52:00
1:52 AM,45.0,28.9,53,30.13,10.0,North,6.9,-,N/A,,Clear,350,2012-12-04 07:52:00
2:52 AM,39.9,26.1,58,30.17,10.0,North,6.9,-,N/A,,Clear,350,2012-12-04 08:52:00
3:52 AM,39.9,23.0,51,30.18,10.0,North,6.9,-,N/A,,Clear,350,2012-12-04 09:52:00
4:52 AM,35.1,21.9,59,30.21,10.0,Calm,Calm,-,N/A,,Clear,0,2012-12-04 10:52:00
5:52 AM,30.0,23.0,75,30.25,10.0,WNW,5.8,-,N/A,,Clear,300,2012-12-04 11:52:00
6:52 AM,28.9,21.9,75,30.27,10.0,NW,5.8,-,N/A,,Clear,310,2012-12-04 12:52:00
7:52 AM,27.0,21.0,78,30.30,10.0,WNW,5.8,-,N/A,,Clear,300,2012-12-04 13:52:00
8:52 AM,37.0,25.0,62,30.30,10.0,WNW,6.9,-,N/A,,Clear,300,2012-12-04 14:52:00
9:52 AM,42.1,25.0,51,30.33,10.0,WNW,8.1,-,N/A,,Clear,300,2012-12-04 15:52:00
10:52 AM,50.0,24.1,36,30.33,10.0,WNW,4.6,-,N/A,,Clear,300,2012-12-04 16:52:00
11:52 AM,55.9,21.9,27,30.32,10.0,West,10.4,-,N/A,,Clear,280,2012-12-04 17:52:00
12:52 PM,59.0,21.9,24,30.30,10.0,Variable,5.8,-,N/A,,Clear,0,2012-12-04 18:52:00
1:52 PM,62.1,18.0,18,30.28,10.0,West,9.2,-,N/A,,Clear,260,2012-12-04 19:52:00
2:52 PM,62.1,18.0,18,30.27,10.0,West,11.5,-,N/A,,Clear,280,2012-12-04 20:52:00
3:52 PM,62.1,19.0,19,30.27,10.0,West,8.1,-,N/A,,Clear,280,2012-12-04 21:52:00
4:52 PM,55.9,19.0,24,30.28,10.0,WNW,5.8,-,N/A,,Clear,300,2012-12-04 22:52:00
5:52 PM,48.0,18.0,30,30.30,10.0,Calm,Calm,-,N/A,,Clear,0,2012-12-04 23:52:00
6:52 PM,34.0,18.0,52,30.31,9.0,Calm,Calm,-,N/A,,Clear,0,2012-12-05 00:52:00
7:52 PM,30.9,18.0,59,30.33,10.0,Calm,Calm,-,N/A,,Clear,0,2012-12-05 01:52:00
8:52 PM,32.0,19.0,59,30.32,10.0,Calm,Calm,-,N/A,,Clear,0,2012-12-05 02:52:00
9:52 PM,35.1,21.0,57,30.30,10.0,Calm,Calm,-,N/A,,Clear,0,2012-12-05 03:52:00
10:52 PM,30.9,21.9,69,30.31,10.0,Calm,Calm,-,N/A,,Clear,0,2012-12-05 04:52:00
11:52 PM,32.0,21.0,64,30.32,10.0,Calm,Calm,-,N/A,,Clear,0,2012-12-05 05:52:00